[[{"header":{"parameterUnit":"m.s-1","parameterCategory":1,"la1":30.2991,"la2":30.254,"lo1":-89.0895,"lo2":-89.0444,"dy":0.0017,"dx":0.0017,"nx":28,"ny":28,"refTime":"2024-08-26T03:00:00:Z","depth":0,"parameterNumber":2,"parameterNumberName":"U-component_of_WINDS"},"data":[0,0,0,0,0,0,0,0,0,0,0,0,0,0,0,0,0,0,0,0,0,0,0,0,0,0,0,0,0,0,0,0,0,0,0,0,0,0,0,0,0,0,0,0,0,0,0,0,0,0,0,0,0,0,0,0,0,0,-0.2163,-0.2163,0,-0.2183,-0.2183,-0.2183,-0.2152,-0.2151,-0.215,-0.2149,-0.2173,-0.2174,-0.2176,0,0,0,0,0,0,0,0,0,0,0,0,0,-0.2101,-0.2102,-0.2163,-0.2163,-0.2164,-0.2183,-0.2183,-0.2183,-0.2152,-0.2151,-0.215,-0.2148,-0.2172,-0.2174,-0.2176,0,0,0,0,0,0,0,0,0,0,0,0,0,-0.2125,-0.2103,-0.2163,-0.215,-0.2149,-0.2183,-0.2183,-0.2183,-0.2153,-0.2151,-0.2149,-0.2148,-0.2172,-0.2174,-0.2176,-0.2224,0,0,-0.2184,-0.2185,0,0,0,0,0,0,0,0,-0.2124,-0.2128,-0.2152,-0.2151,-0.215,-0.2163,-0.217,-0.2197,-0.2153,-0.2151,-0.2149,-0.2147,-0.2171,-0.2174,-0.2181,-0.2225,-0.2226,-0.2184,-0.2186,-0.2187,-0.2188,0,0,0,0,0,0,0,-0.2122,-0.2127,-0.2171,-0.2152,-0.2151,-0.2144,-0.2146,-0.2175,-0.217,-0.2151,-0.2149,-0.2152,-0.217,-0.2179,-0.2181,-0.2227,-0.2184,-0.2186,-0.2188,-0.2189,-0.2311,-0.2312,0,0,0,0,0,0,-0.2122,-0.2125,-0.217,-0.2172,-0.2133,-0.2147,-0.2149,-0.2161,-0.217,-0.217,-0.2153,-0.215,-0.2175,-0.2178,-0.2182,-0.2239,-0.2187,-0.2189,-0.2191,-0.2309,-0.2311,-0.2313,0,0,0,0,0,0,-0.2121,-0.2126,-0.217,-0.2148,-0.2153,-0.215,-0.2163,-0.2162,-0.217,-0.2171,-0.217,-0.2162,-0.2174,-0.2179,-0.2214,-0.2239,-0.219,-0.2192,-0.2307,-0.231,-0.2312,-0.2353,0,0,0,0,0,0,-0.2119,-0.2126,-0.2144,-0.2148,-0.2154,-0.22,-0.2165,-0.2164,-0.2174,-0.2171,-0.218,-0.218,-0.2173,-0.221,-0.2216,-0.2242,-0.2194,-0.2305,-0.2308,-0.2311,-0.2349,-0.2356,-0.2363,0,0,0,0,0,-0.2117,-0.2155,-0.2145,-0.215,-0.2176,-0.2202,-0.2205,-0.2196,-0.2176,-0.2195,-0.2195,-0.2179,-0.2235,-0.2214,-0.222,-0.2247,-0.2303,-0.2307,-0.2311,-0.2346,-0.2355,-0.2362,0,0,0,0,0,0,-0.2156,-0.2156,-0.2144,-0.2185,-0.2193,-0.2197,-0.222,-0.2206,-0.2221,-0.2218,-0.2206,-0.2209,-0.2246,-0.225,-0.2227,-0.2293,-0.2266,-0.2271,-0.229,-0.2299,-0.2305,-0.2305,-0.2196,0,0,0,0,0,-0.2168,-0.2188,-0.2188,-0.2224,-0.2229,-0.2223,-0.2234,-0.2226,-0.2235,-0.2239,-0.2242,-0.2252,-0.2271,-0.2285,-0.2303,-0.2348,-0.235,-0.237,-0.2377,-0.2382,-0.2388,-0.2412,-0.2421,-0.2326,-0.2326,-0.2326,0,0,-0.2197,-0.2199,-0.2213,-0.2232,-0.2238,-0.2259,-0.2227,-0.2251,-0.2268,-0.2243,-0.2276,-0.2278,-0.2289,-0.2329,-0.2347,-0.2333,-0.2414,-0.2387,-0.2391,-0.2394,-0.2417,-0.2426,-0.2434,-0.2329,-0.2328,-0.2328,0,0,-0.2259,-0.2262,-0.2292,-0.2298,-0.2306,-0.2302,-0.2309,-0.2313,-0.2314,-0.2346,-0.2328,-0.2347,-0.2381,-0.2389,-0.2398,-0.246,-0.2446,-0.2466,-0.2502,-0.2526,-0.2533,-0.254,-0.2563,-0.2572,-0.2471,-0.2471,-0.2471,0,-0.2293,-0.2324,-0.231,-0.2336,-0.2345,-0.2321,-0.2352,-0.2358,-0.2373,-0.238,-0.2363,-0.2405,-0.241,-0.2452,-0.2467,-0.2474,-0.2483,-0.2466,-0.2533,-0.254,-0.2546,-0.2568,-0.2576,-0.2473,-0.2473,-0.2473,-0.2473,0,-0.2366,-0.2388,-0.2411,-0.2424,-0.2435,-0.2463,-0.2455,-0.2468,-0.2458,-0.2455,-0.2489,-0.2493,-0.2512,-0.2521,-0.2512,-0.2561,-0.2552,-0.2535,-0.2507,-0.2557,-0.2578,-0.2586,-0.2477,-0.2476,-0.2475,-0.2475,0,0,-0.2457,-0.2458,-0.2468,-0.2473,-0.2478,-0.2496,-0.2522,-0.2538,-0.255,-0.256,-0.2583,-0.2611,-0.2594,-0.2604,-0.2595,-0.2616,-0.2665,-0.2596,-0.2596,-0.261,-0.2721,-0.2735,-0.2745,-0.2655,-0.2657,-0.2658,-0.272,0,-0.2519,-0.2564,-0.2552,-0.2597,-0.2617,-0.2593,-0.2616,-0.2623,-0.2621,-0.2638,-0.2635,-0.2656,-0.2631,-0.2637,-0.2656,-0.2655,-0.2688,-0.265,-0.2678,-0.2679,-0.2678,-0.2756,-0.2772,-0.2831,-0.2728,-0.2729,-0.273,0,-0.2599,-0.261,-0.2657,-0.2658,-0.2666,-0.2688,-0.2701,-0.2717,-0.2723,-0.272,-0.273,-0.2716,-0.2743,-0.2713,-0.275,-0.2725,-0.2735,-0.2736,-0.2738,-0.2742,-0.271,-0.2764,-0.2849,-0.2859,-0.2743,-0.2742,-0.2741,0,-0.2662,-0.2688,-0.272,-0.2725,-0.2727,-0.2742,-0.2744,-0.2748,-0.2758,-0.277,-0.2777,-0.2792,-0.2801,-0.2813,-0.2804,-0.2783,-0.2843,-0.2812,-0.2842,-0.2842,-0.2858,-0.2858,-0.2948,-0.2861,-0.2861,-0.2861,-0.2861,0,-0.2735,-0.2765,-0.2748,-0.2768,-0.2801,-0.2785,-0.2818,-0.2817,-0.2821,-0.2841,-0.282,-0.2839,-0.2826,-0.2844,-0.2837,-0.2869,-0.2873,-0.2872,-0.287,-0.2875,-0.2875,-0.2883,-0.288,-0.2863,-0.2863,-0.2862,-0.2862,0,-0.2812,-0.2801,-0.2834,-0.2832,-0.2832,-0.2857,-0.2855,-0.2874,-0.2868,-0.2893,-0.2898,-0.2891,-0.2911,-0.2902,-0.2924,-0.2919,-0.296,-0.2952,-0.2958,-0.2957,-0.2988,-0.2986,-0.3089,-0.3102,-0.3005,-0.3005,-0.3006,0,-0.286,-0.2882,-0.2882,-0.2893,-0.2895,-0.2913,-0.2923,-0.2907,-0.2919,-0.2926,-0.2944,-0.2961,-0.2975,-0.3008,-0.3005,-0.3021,-0.3014,-0.3048,-0.3017,-0.302,-0.3016,-0.3016,-0.3019,-0.3056,-0.3057,-0.3058,-0.3059,0,-0.2947,-0.294,-0.2954,-0.2966,-0.2978,-0.2987,-0.2994,-0.3004,-0.2989,-0.3003,-0.3022,-0.3032,-0.3052,-0.307,-0.3084,-0.3086,-0.3071,-0.3068,-0.3076,-0.3083,-0.3086,-0.3086,-0.2978,-0.3067,-0.3066,-0.3066,-0.3065,-0.3065,-0.3012,-0.3031,-0.3033,-0.3049,-0.3052,-0.3059,-0.3076,-0.3072,-0.3087,-0.3102,-0.3091,-0.3114,-0.3119,-0.3135,-0.3139,-0.3157,-0.3144,-0.3155,-0.3158,-0.3162,-0.3167,-0.3081,-0.3159,-0.3159,-0.3159,-0.3159,-0.3158,0,-0.31,-0.3099,-0.3114,-0.3124,-0.3136,-0.3117,-0.3124,-0.3136,-0.3156,-0.316,-0.3173,-0.3195,-0.3212,-0.3209,-0.3224,-0.3239,-0.3232,-0.3244,-0.3244,-0.3245,-0.3177,-0.3169,-0.3249,-0.3249,-0.3249,-0.3249,-0.3249,-0.3249,-0.3147,-0.3177,-0.317,-0.3202,-0.3201,-0.3222,-0.3227,-0.3234,-0.3237,-0.3262,-0.3275,-0.3272,-0.3274,-0.3289,-0.3303,-0.3302,-0.3309,-0.3324,-0.332,-0.3258,-0.3249,-0.3241,-0.3234,-0.3325,-0.3325,-0.3386,-0.3387,-0.3387]},{"header":{"parameterUnit":"m.s-1","parameterCategory":1,"la1":30.2991,"la2":30.254,"lo1":-89.0895,"lo2":-89.0444,"dy":0.0017,"dx":0.0017,"nx":28,"ny":28,"refTime":"2024-08-26T03:00:00:Z","depth":0,"parameterNumber":3,"parameterNumberName":"V-component_of_WINDS"},"data":[0,0,0,0,0,0,0,0,0,0,0,0,0,0,0,0,0,0,0,0,0,0,0,0,0,0,0,0,0,0,0,0,0,0,0,0,0,0,0,0,0,0,0,0,0,0,0,0,0,0,0,0,0,0,0,0,0,0,-2.7069,-2.707,0,-2.7113,-2.7114,-2.7114,-2.7077,-2.7076,-2.7074,-2.7073,-2.7115,-2.7118,-2.712,0,0,0,0,0,0,0,0,0,0,0,0,0,-2.695,-2.6953,-2.7069,-2.707,-2.707,-2.7113,-2.7114,-2.7114,-2.7078,-2.7076,-2.7074,-2.7072,-2.7114,-2.7117,-2.7121,0,0,0,0,0,0,0,0,0,0,0,0,0,-2.6999,-2.6953,-2.7069,-2.7057,-2.7057,-2.7113,-2.7114,-2.7114,-2.7078,-2.7076,-2.7074,-2.7071,-2.7113,-2.7117,-2.7121,-2.719,0,0,-2.7133,-2.7134,0,0,0,0,0,0,0,0,-2.6996,-2.7003,-2.7058,-2.7058,-2.7058,-2.7088,-2.7087,-2.714,-2.7079,-2.707,-2.7073,-2.707,-2.7108,-2.7112,-2.7125,-2.7192,-2.7194,-2.7133,-2.7135,-2.7137,-2.7138,0,0,0,0,0,0,0,-2.6993,-2.7001,-2.7086,-2.7059,-2.7059,-2.7049,-2.7053,-2.7097,-2.7101,-2.707,-2.7068,-2.7074,-2.7107,-2.7121,-2.7126,-2.7195,-2.7133,-2.7136,-2.7139,-2.714,-2.7321,-2.7323,0,0,0,0,0,0,-2.6991,-2.6999,-2.7085,-2.7088,-2.7021,-2.7053,-2.7058,-2.708,-2.71,-2.7101,-2.7076,-2.7072,-2.7116,-2.7121,-2.7127,-2.721,-2.7137,-2.714,-2.7143,-2.7318,-2.7321,-2.7324,0,0,0,0,0,0,-2.6989,-2.6999,-2.7083,-2.7043,-2.7052,-2.7057,-2.7083,-2.7082,-2.7097,-2.7104,-2.7105,-2.709,-2.7114,-2.7122,-2.7175,-2.721,-2.7142,-2.7146,-2.7315,-2.7319,-2.7323,-2.7375,0,0,0,0,0,0,-2.6985,-2.6998,-2.7026,-2.7043,-2.7055,-2.7132,-2.7085,-2.7085,-2.7104,-2.7099,-2.7118,-2.7119,-2.7113,-2.717,-2.7179,-2.7215,-2.7149,-2.7312,-2.7317,-2.7321,-2.737,-2.738,-2.7389,0,0,0,0,0,-2.6981,-2.7038,-2.7027,-2.7038,-2.7089,-2.7134,-2.714,-2.7133,-2.7107,-2.7134,-2.7139,-2.7118,-2.7205,-2.7175,-2.7185,-2.7223,-2.731,-2.7316,-2.7321,-2.7366,-2.7378,-2.7389,0,0,0,0,0,0,-2.7023,-2.704,-2.7028,-2.7093,-2.7112,-2.7127,-2.7161,-2.7146,-2.7173,-2.7168,-2.7157,-2.7162,-2.7218,-2.7226,-2.7192,-2.7291,-2.7253,-2.7261,-2.7284,-2.7296,-2.7305,-2.7301,-2.7152,0,0,0,0,0,-2.704,-2.7076,-2.7089,-2.7144,-2.7155,-2.7156,-2.7175,-2.7169,-2.7188,-2.7196,-2.7204,-2.7223,-2.7254,-2.7275,-2.7305,-2.7371,-2.7374,-2.7402,-2.7411,-2.7419,-2.7426,-2.7461,-2.7473,-2.7342,-2.7342,-2.7342,0,0,-2.7075,-2.7089,-2.7112,-2.7153,-2.7167,-2.7204,-2.7163,-2.7204,-2.723,-2.7201,-2.7253,-2.726,-2.728,-2.734,-2.7367,-2.7348,-2.7462,-2.7426,-2.7432,-2.7435,-2.7468,-2.748,-2.7491,-2.7346,-2.7346,-2.7345,0,0,-2.7158,-2.7172,-2.722,-2.7235,-2.7258,-2.7258,-2.727,-2.7288,-2.7291,-2.7343,-2.7322,-2.7353,-2.7407,-2.7422,-2.7437,-2.7526,-2.7508,-2.7535,-2.7584,-2.7618,-2.7628,-2.7637,-2.7669,-2.768,-2.7542,-2.7542,-2.7542,0,-2.7198,-2.7253,-2.7246,-2.7288,-2.7307,-2.7283,-2.7331,-2.7346,-2.7376,-2.7389,-2.7368,-2.7436,-2.7447,-2.7511,-2.7532,-2.7545,-2.7557,-2.7533,-2.7628,-2.7637,-2.7645,-2.7675,-2.7686,-2.7546,-2.7545,-2.7545,-2.7545,0,-2.7302,-2.734,-2.7376,-2.7407,-2.743,-2.7474,-2.7473,-2.7496,-2.7487,-2.749,-2.7542,-2.7556,-2.7587,-2.7602,-2.7593,-2.7664,-2.7652,-2.7629,-2.7591,-2.7661,-2.7688,-2.77,-2.755,-2.7549,-2.7548,-2.7547,0,0,-2.7412,-2.7439,-2.7452,-2.7466,-2.7489,-2.7518,-2.7561,-2.7593,-2.7613,-2.7635,-2.767,-2.7717,-2.7697,-2.7713,-2.7706,-2.7737,-2.7805,-2.7711,-2.7711,-2.7727,-2.7883,-2.79,-2.7913,-2.7794,-2.7796,-2.7798,-2.7881,0,-2.7496,-2.7572,-2.7567,-2.7638,-2.7673,-2.7652,-2.7689,-2.7707,-2.771,-2.774,-2.7743,-2.7777,-2.7747,-2.7757,-2.7786,-2.7791,-2.7836,-2.7785,-2.7826,-2.7827,-2.7821,-2.7928,-2.7945,-2.8024,-2.7892,-2.7894,-2.7895,0,-2.7603,-2.763,-2.7705,-2.7723,-2.7737,-2.7771,-2.78,-2.7829,-2.7848,-2.7848,-2.7867,-2.7855,-2.7898,-2.7859,-2.7917,-2.7882,-2.7898,-2.7903,-2.7906,-2.7909,-2.7865,-2.7933,-2.8049,-2.806,-2.7912,-2.7911,-2.791,0,-2.7676,-2.773,-2.7782,-2.7795,-2.7817,-2.7841,-2.7851,-2.7868,-2.7887,-2.7912,-2.7924,-2.7953,-2.7969,-2.7992,-2.7987,-2.7959,-2.8046,-2.8007,-2.8047,-2.8047,-2.8066,-2.8065,-2.8185,-2.8077,-2.8077,-2.8077,-2.8077,0,-2.7769,-2.7816,-2.7815,-2.7847,-2.7899,-2.7892,-2.7943,-2.795,-2.7965,-2.7998,-2.798,-2.801,-2.8003,-2.8033,-2.8029,-2.8078,-2.8085,-2.8086,-2.8084,-2.8088,-2.8087,-2.8098,-2.8092,-2.808,-2.8079,-2.8079,-2.8078,0,-2.7859,-2.7861,-2.7916,-2.7932,-2.7937,-2.7975,-2.7988,-2.8018,-2.802,-2.8061,-2.807,-2.8074,-2.8108,-2.8106,-2.8144,-2.8142,-2.8202,-2.8194,-2.8196,-2.8194,-2.8234,-2.823,-2.8365,-2.8382,-2.8263,-2.8264,-2.8265,0,-2.7919,-2.7955,-2.7975,-2.7996,-2.8008,-2.8042,-2.8062,-2.8056,-2.8077,-2.8102,-2.8128,-2.8161,-2.8187,-2.8243,-2.8248,-2.8277,-2.827,-2.8315,-2.8274,-2.8276,-2.827,-2.8268,-2.8271,-2.8323,-2.8324,-2.8325,-2.8326,0,-2.8024,-2.8023,-2.8053,-2.8084,-2.8108,-2.8132,-2.8153,-2.8171,-2.8167,-2.8192,-2.8227,-2.8247,-2.8287,-2.832,-2.8347,-2.8356,-2.8341,-2.8339,-2.835,-2.8353,-2.8353,-2.8353,-2.8217,-2.8336,-2.8335,-2.8334,-2.8334,-2.8333,-2.8101,-2.8131,-2.8151,-2.8185,-2.82,-2.8221,-2.8249,-2.8256,-2.8285,-2.8318,-2.8312,-2.8352,-2.8369,-2.8405,-2.8417,-2.8447,-2.8431,-2.8446,-2.845,-2.8454,-2.8459,-2.8348,-2.8452,-2.8452,-2.8452,-2.8451,-2.8451,0,-2.8205,-2.8217,-2.8248,-2.8279,-2.8305,-2.8289,-2.8312,-2.8335,-2.837,-2.8388,-2.8415,-2.8455,-2.8486,-2.8494,-2.8524,-2.8547,-2.854,-2.8555,-2.8553,-2.8555,-2.8472,-2.8459,-2.8559,-2.8559,-2.8559,-2.8559,-2.8559,-2.8559,-2.8263,-2.8314,-2.8315,-2.8373,-2.8384,-2.8423,-2.8438,-2.8456,-2.847,-2.8517,-2.8543,-2.8548,-2.8562,-2.8593,-2.8621,-2.8622,-2.8634,-2.8651,-2.865,-2.8572,-2.8561,-2.8551,-2.8539,-2.8654,-2.8654,-2.873,-2.8731,-2.8731]}]]